SOYUZ MS-04

Last updated on Sun May 14 2017 00:15:05 GMT+0000 (Coordinated Universal Time)

1 42682U 17020A 17133.54043981 .00001271 00000-0 26581-4 0 9998 2 42682 51.6429 211.0011 0005424 152.7162 61.9406 15.54007961 56360
UTC large
Height (km)
Speed (km/s)
/
Latitude / Longitude
Inclination (degrees)
Orbital Period (minutes)
Azimuth
Elevation
Range (km)
Doppler Factor

Next 0 passes for location: London (51.5072 / 0.1276)

Sorry there are no passes over London.